| time (UTC) | temp F | wind direction | speed knots | gust knots | rain 1hr in | rain 24hr in | rain mn in | humidity % | barometer mb |
| 20260508064910 | 62 | 208 | 4.3 | 7.8 | 0.00 | 0.00 | 0.00 | 78 | 1013.6 |
| 20260508061716 | 61 | 175 | 3.5 | 6.1 | 0.00 | 0.00 | 0.00 | 80 | 1013.6 |
| 20260508054639 | 59 | 0 | 0.0 | 3.5 | 0.00 | 0.00 | 0.00 | 82 | 1013.3 |
| 20260508051623 | 58 | 0 | 0.0 | 0.0 | 0.00 | 0.00 | 0.00 | 85 | 1013.0 |
| 20260508040553 | 56 | 171 | 3.5 | 6.1 | 0.00 | 0.00 | 0.00 | 86 | 1012.3 |
| 20260508011746 | 56 | 192 | 1.7 | 6.1 | 0.00 | 0.00 | 0.00 | 88 | 1011.8 |
| 20260508004710 | 56 | 171 | 3.5 | 6.1 | 0.00 | 0.00 | 0.00 | 89 | 1011.6 |
| 20260507210445 | 57 | 47 | 1.7 | 5.2 | 0.00 | 0.00 | 0.00 | 84 | 1012.2 |
| 20260507203257 | 57 | 0 | 0.0 | 0.9 | 0.00 | 0.00 | 0.00 | 84 | 1012.7 |
| 20260507200212 | 58 | 194 | 2.6 | 5.2 | 0.00 | 0.00 | 0.00 | 83 | 1012.7 |
| 20260507182016 | 58 | 146 | 7.0 | 10.4 | 0.00 | 0.00 | 0.00 | 82 | 1011.9 |
| 20260507174822 | 59 | 146 | 6.1 | 11.3 | 0.00 | 0.00 | 0.00 | 79 | 1011.6 |
| 20260507171750 | 60 | 113 | 9.6 | 13.0 | 0.00 | 0.00 | 0.00 | 77 | 1011.3 |
| 20260507164710 | 61 | 159 | 8.7 | 13.9 | 0.00 | 0.00 | 0.00 | 76 | 1011.7 |
| 20260507161613 | 62 | 140 | 8.7 | 18.2 | 0.00 | 0.00 | 0.00 | 73 | 1011.6 |
| 20260507133358 | 66 | 140 | 12.2 | 18.2 | 0.00 | 0.00 | 0.00 | 64 | 1011.5 |
| 20260507130242 | 66 | 145 | 11.3 | 19.1 | 0.00 | 0.00 | 0.00 | 64 | 1011.8 |
| 20260507092029 | 65 | 126 | 20.0 | 33.0 | 0.00 | 0.00 | 0.00 | 51 | 1012.4 |
| 20260507084953 | 65 | 113 | 20.9 | 28.7 | 0.00 | 0.00 | 0.00 | 49 | 1012.3 |
| 20260507081813 | 65 | 134 | 14.8 | 27.8 | 0.00 | 0.00 | 0.00 | 52 | 1012.3 |
| 20260507074735 | 64 | 138 | 19.1 | 31.3 | 0.00 | 0.00 | 0.00 | 52 | 1012.5 |